Date,TemperatureHighF,TemperatureAvgF,TemperatureLowF,DewpointHighF,DewpointAvgF,DewpointLowF,HumidityHigh,HumidityAvg,HumidityLow,PressureMaxIn,PressureMinIn,WindSpeedMaxMPH,WindSpeedAvgMPH,GustSpeedMaxMPH,PrecipitationSumIn
2013-2-1,16.9,14.3,10.3,14.5,10.3,4.5,90,84,75,30.27,29.94,20,7,23,0.00
2013-2-2,23.9,17.3,11.5,21.4,13.8,8.2,91,86,76,30.20,29.97,15,2,18,0.00
2013-2-3,22.9,18.3,11.5,19.2,15.0,8.4,92,87,83,30.02,29.88,18,3,26,0.00
2013-2-4,26.3,22.2,17.8,23.9,19.6,15.1,98,89,85,30.01,29.85,9,1,10,0.00
2013-2-5,30.5,23.6,12.9,27.8,21.0,10.8,100,90,78,29.99,29.78,19,3,19,0.00
2013-2-6,35.7,28.5,19.7,26.2,22.7,17.0,92,79,61,30.24,29.99,17,2,17,0.06
2013-2-7,40.0,33.2,28.5,32.8,27.8,22.3,95,80,70,30.19,29.80,11,1,13,0.03
2013-2-8,33.1,29.6,19.1,31.8,26.1,16.4,96,87,73,30.36,29.80,16,2,17,0.15
2013-2-9,34.4,24.1,12.6,27.4,20.0,10.2,92,84,72,30.44,30.17,15,2,18,0.05
2013-2-10,44.9,35.6,27.7,43.8,32.0,24.1,96,87,77,30.17,29.55,19,4,22,0.08
2013-2-11,46.8,37.1,31.9,45.6,31.4,25.2,96,80,67,29.91,29.50,33,12,36,0.00
2013-2-12,31.9,30.2,28.8,25.9,24.7,23.1,82,80,75,30.06,29.91,20,6,27,0.00
2013-2-13,45.0,33.4,26.1,31.9,27.2,23.0,89,78,58,29.92,29.69,13,2,14,0.00
2013-2-14,41.9,36.1,31.5,36.2,32.2,28.8,93,86,76,29.88,29.63,27,5,32,0.00
2013-2-15,31.5,26.6,23.1,29.6,22.1,16.8,93,83,66,30.15,29.88,15,4,17,0.04
2013-2-16,23.3,20.6,16.7,20.8,16.7,12.7,91,85,68,30.11,30.03,20,4,24,0.00
2013-2-17,27.8,17.5,4.9,18.0,11.6,2.1,89,78,57,30.23,30.10,10,0,12,0.01
2013-2-18,50.8,36.8,22.6,44.4,29.9,17.2,95,77,61,30.13,29.42,18,5,24,0.20
2013-2-19,45.8,25.2,17.9,43.2,22.4,15.2,93,89,79,30.01,29.36,31,11,35,0.16
2013-2-20,20.8,18.6,17.5,18.1,15.7,14.6,89,88,86,30.21,30.01,16,7,21,0.00
2013-2-22,33.1,30.9,24.9,32.3,29.8,23.4,97,96,93,30.00,29.83,20,3,22,0.01
2013-2-23,34.4,28.6,26.8,32.9,24.4,21.8,97,84,78,30.02,29.85,19,4,20,0.00
2013-2-24,36.5,30.1,22.1,30.6,25.8,19.9,92,84,73,30.15,29.89,12,2,14,0.04
2013-2-25,41.8,29.9,18.9,31.4,24.0,17.2,95,80,57,30.22,30.04,10,1,10,0.03
2013-2-26,37.7,33.3,30.6,33.6,28.3,23.4,97,82,65,30.06,29.50,20,3,23,0.22
2013-2-27,36.4,34.7,34.4,35.4,33.7,33.1,97,96,94,29.79,29.55,4,0,7,0.37
2013-2-28,38.0,35.2,32.6,34.2,32.0,28.9,96,88,79,29.96,29.58,16,4,18,0.01